sat.trackr.live / text

‹ back to catalog

STARLINK-32566

NORAD 61958 · 2024-209V

PAYLOAD ACTIVE UNKNOWN

§ Identity

Operator
Country
US
Launch date
2024-11-14
Launch site
AFWTR
Launch vehicle
Mass (kg)
RCS (m²)

Purposes: comms

External: N2YO · Heavens-Above · Gunter

§ Orbital elements

Epoch: 2026-09-21T09:10:03.572256Z

Period
93.85 min
Inclination
53.1611°
Eccentricity
0.0001634
Mean motion
15.34406360 rev/d
Perigee alt
461.6 km
Apogee alt
463.8 km
Semi-major
6,840.8 km
B*
4.4650e-4
RAAN
303.8052°
Arg perigee
68.6758°
Mean anomaly
291.4419°
Rev number
10,501

§ Raw data

STARLINK-325661 61958U 24209V   26264.38198579  .00014742  00000+0  44650-3 0  99952 61958  53.1611 303.8052 0001634  68.6758 291.4419 15.34406360105012

JSON: /api/v1/satellites/61958 · /tle

For live sub-satellite position, see the globe view (requires WebGL).

§ Visibility from observer

Set your observer location to see the next 7 days of passes ≥ 10°. The values pass through the URL so the page stays shareable.

No JS? Fill the form by hand. The geolocation button needs JavaScript.